[[{"header":{"parameterUnit":"m.s-1","parameterCategory":1,"la1":30.2991,"la2":30.254,"lo1":-89.0895,"lo2":-89.0444,"dy":0.0017,"dx":0.0017,"nx":28,"ny":28,"refTime":"2025-04-24T21:00:00:Z","depth":0,"parameterNumber":2,"parameterNumberName":"U-component_of_WINDS"},"data":[0,0,0,0,0,0,0,0,0,0,0,0,0,0,0,0,0,0,0,0,0,0,0,0,0,0,0,0,0,0,0,0,0,0,0,0,0,0,0,0,0,0,0,0,0,0,0,0,0,0,0,0,0,0,0,0,0,0,-0.0665,-0.0664,0,-0.0553,-0.0551,-0.055,-0.0501,-0.0501,-0.0501,-0.0501,-0.0383,-0.038,-0.0376,0,0,0,0,0,0,0,0,0,0,0,0,0,-0.0835,-0.0833,-0.0665,-0.0664,-0.0662,-0.0553,-0.0551,-0.055,-0.0501,-0.0501,-0.0501,-0.0501,-0.0384,-0.038,-0.0376,0,0,0,0,0,0,0,0,0,0,0,0,0,-0.0746,-0.0832,-0.0665,-0.0625,-0.062,-0.0553,-0.0551,-0.0549,-0.0501,-0.0501,-0.0501,-0.0501,-0.0385,-0.0381,-0.0376,-0.034,0,0,-0.036,-0.0358,0,0,0,0,0,0,0,0,-0.0751,-0.074,-0.0632,-0.0627,-0.0622,-0.0541,-0.0568,-0.0479,-0.0501,-0.0546,-0.0501,-0.0501,-0.0435,-0.0426,-0.0404,-0.0334,-0.0329,-0.036,-0.0357,-0.0355,-0.0354,0,0,0,0,0,0,0,-0.0757,-0.0744,-0.0621,-0.0631,-0.0624,-0.0611,-0.0599,-0.0551,-0.049,-0.0542,-0.0538,-0.0526,-0.0432,-0.0409,-0.0401,-0.0328,-0.036,-0.0356,-0.0353,-0.0351,-0.0224,-0.0223,0,0,0,0,0,0,-0.0771,-0.075,-0.0624,-0.0617,-0.0689,-0.0608,-0.0594,-0.0567,-0.0491,-0.0479,-0.0525,-0.0524,-0.0418,-0.0407,-0.0397,-0.035,-0.0355,-0.035,-0.0347,-0.0224,-0.0224,-0.0223,0,0,0,0,0,0,-0.0775,-0.076,-0.0629,-0.0682,-0.0665,-0.0605,-0.0574,-0.0564,-0.0541,-0.0478,-0.0467,-0.0513,-0.0417,-0.0404,-0.0355,-0.0346,-0.0348,-0.0344,-0.0224,-0.0224,-0.0223,-0.0257,0,0,0,0,0,0,-0.078,-0.0762,-0.0748,-0.0683,-0.0662,-0.0589,-0.0574,-0.0562,-0.0533,-0.053,-0.0464,-0.0453,-0.0417,-0.0363,-0.035,-0.0339,-0.034,-0.0225,-0.0224,-0.0223,-0.0257,-0.0258,-0.0259,0,0,0,0,0,-0.0786,-0.0761,-0.0747,-0.0732,-0.0644,-0.0589,-0.0577,-0.0536,-0.0533,-0.0518,-0.0478,-0.0455,-0.0349,-0.0358,-0.0343,-0.0331,-0.0225,-0.0224,-0.0224,-0.0256,-0.0258,-0.0259,0,0,0,0,0,0,-0.0825,-0.0752,-0.0736,-0.0689,-0.0646,-0.0581,-0.0561,-0.0539,-0.0495,-0.0494,-0.0444,-0.043,-0.0385,-0.0353,-0.0364,-0.0293,-0.0285,-0.0281,-0.0315,-0.0316,-0.0317,-0.0325,-0.0336,0,0,0,0,0,-0.0829,-0.0791,-0.0728,-0.0693,-0.0673,-0.0621,-0.0595,-0.0568,-0.0521,-0.0502,-0.0458,-0.0412,-0.0368,-0.034,-0.0297,-0.0252,-0.0237,-0.0236,-0.0238,-0.0239,-0.0236,-0.021,-0.0209,-0.022,-0.022,-0.022,0,0,-0.0835,-0.079,-0.0769,-0.07,-0.0663,-0.0625,-0.0605,-0.0565,-0.0536,-0.0495,-0.0446,-0.0413,-0.0359,-0.0312,-0.0289,-0.0284,-0.023,-0.0238,-0.0239,-0.0235,-0.0209,-0.0208,-0.0207,-0.0219,-0.022,-0.022,0,0,-0.0827,-0.0789,-0.0756,-0.072,-0.0665,-0.0631,-0.0624,-0.0562,-0.0538,-0.0489,-0.0458,-0.0422,-0.0348,-0.0311,-0.0282,-0.0262,-0.024,-0.0249,-0.0255,-0.0231,-0.023,-0.0229,-0.0221,-0.0219,-0.0247,-0.0247,-0.0247,0,-0.0841,-0.0783,-0.0742,-0.0704,-0.0674,-0.0637,-0.0603,-0.057,-0.0503,-0.0484,-0.0479,-0.0386,-0.0347,-0.0291,-0.0287,-0.0265,-0.0254,-0.0256,-0.0233,-0.0232,-0.023,-0.0223,-0.022,-0.0248,-0.0248,-0.0248,-0.0248,0,-0.0803,-0.0763,-0.0743,-0.0681,-0.065,-0.0614,-0.0567,-0.054,-0.0516,-0.0482,-0.0433,-0.0385,-0.0331,-0.0316,-0.0292,-0.0257,-0.0256,-0.0243,-0.0234,-0.0232,-0.0224,-0.022,-0.025,-0.025,-0.0249,-0.0249,0,0,-0.0815,-0.0732,-0.0726,-0.0697,-0.0635,-0.0603,-0.0566,-0.0514,-0.0492,-0.0448,-0.0415,-0.0354,-0.0342,-0.031,-0.0281,-0.026,-0.0247,-0.0249,-0.0247,-0.0251,-0.0207,-0.0217,-0.0214,-0.0233,-0.0232,-0.0231,-0.0211,0,-0.0798,-0.073,-0.0693,-0.0641,-0.0603,-0.0569,-0.0536,-0.0494,-0.0462,-0.0425,-0.039,-0.0347,-0.0335,-0.0315,-0.0293,-0.0254,-0.0238,-0.0255,-0.0201,-0.02,-0.0215,-0.021,-0.0219,-0.0203,-0.0208,-0.0207,-0.0207,0,-0.0769,-0.0727,-0.0671,-0.0614,-0.0597,-0.0568,-0.0519,-0.0484,-0.0436,-0.0414,-0.038,-0.0351,-0.031,-0.0306,-0.0249,-0.0262,-0.0238,-0.0215,-0.0214,-0.0206,-0.0203,-0.0202,-0.0196,-0.0194,-0.0202,-0.0202,-0.0202,0,-0.0783,-0.0712,-0.067,-0.0647,-0.0579,-0.056,-0.0531,-0.0483,-0.0455,-0.0412,-0.0393,-0.0345,-0.0319,-0.0282,-0.0242,-0.0243,-0.0189,-0.0181,-0.0169,-0.017,-0.0159,-0.016,-0.0149,-0.0145,-0.0145,-0.0145,-0.0145,0,-0.0767,-0.0735,-0.0675,-0.0649,-0.0612,-0.057,-0.0533,-0.0501,-0.0459,-0.0426,-0.0393,-0.0362,-0.0311,-0.0274,-0.0243,-0.02,-0.0189,-0.017,-0.0161,-0.0172,-0.0175,-0.0155,-0.0155,-0.0144,-0.0144,-0.0144,-0.0144,0,-0.0776,-0.0735,-0.0687,-0.0628,-0.0612,-0.0587,-0.0535,-0.0509,-0.0476,-0.0435,-0.0422,-0.037,-0.0325,-0.0282,-0.0221,-0.02,-0.0158,-0.0147,-0.0174,-0.017,-0.016,-0.0161,-0.0135,-0.013,-0.013,-0.013,-0.013,0,-0.0769,-0.0743,-0.0681,-0.0657,-0.0629,-0.0591,-0.0562,-0.052,-0.0492,-0.0436,-0.0416,-0.0369,-0.0329,-0.0259,-0.0215,-0.0169,-0.0156,-0.0151,-0.0149,-0.0161,-0.0156,-0.0158,-0.0155,-0.0151,-0.0152,-0.0152,-0.0152,0,-0.076,-0.0741,-0.0702,-0.0656,-0.0624,-0.0585,-0.0546,-0.0528,-0.0478,-0.0448,-0.0402,-0.0371,-0.031,-0.0264,-0.0213,-0.0182,-0.0158,-0.0153,-0.0148,-0.0158,-0.0175,-0.0165,-0.0177,-0.0153,-0.0153,-0.0153,-0.0153,-0.0153,-0.0759,-0.0735,-0.0689,-0.0646,-0.0613,-0.0577,-0.0549,-0.0513,-0.0475,-0.0423,-0.04,-0.0354,-0.0307,-0.0236,-0.0206,-0.0169,-0.0163,-0.0156,-0.0154,-0.0152,-0.0155,-0.0182,-0.016,-0.016,-0.016,-0.0159,-0.0159,0,-0.0749,-0.0717,-0.0679,-0.0625,-0.0592,-0.0575,-0.053,-0.0504,-0.0464,-0.0423,-0.0385,-0.0333,-0.0288,-0.0242,-0.0194,-0.0174,-0.0162,-0.0162,-0.0163,-0.0156,-0.0163,-0.0172,-0.0173,-0.0173,-0.0173,-0.0173,-0.0173,-0.0173,-0.0739,-0.0697,-0.0673,-0.0615,-0.0583,-0.0538,-0.0515,-0.0481,-0.0449,-0.0392,-0.0355,-0.0326,-0.0283,-0.0232,-0.0191,-0.0178,-0.0162,-0.0166,-0.015,-0.0157,-0.0156,-0.0155,-0.0163,-0.0163,-0.0163,-0.0147,-0.0147,-0.0147]},{"header":{"parameterUnit":"m.s-1","parameterCategory":1,"la1":30.2991,"la2":30.254,"lo1":-89.0895,"lo2":-89.0444,"dy":0.0017,"dx":0.0017,"nx":28,"ny":28,"refTime":"2025-04-24T21:00:00:Z","depth":0,"parameterNumber":3,"parameterNumberName":"V-component_of_WINDS"},"data":[0,0,0,0,0,0,0,0,0,0,0,0,0,0,0,0,0,0,0,0,0,0,0,0,0,0,0,0,0,0,0,0,0,0,0,0,0,0,0,0,0,0,0,0,0,0,0,0,0,0,0,0,0,0,0,0,0,0,2.6812,2.6812,0,2.6781,2.6781,2.678,2.6815,2.6816,2.6818,2.6819,2.6781,2.6779,2.6777,0,0,0,0,0,0,0,0,0,0,0,0,0,2.6896,2.6894,2.6812,2.6812,2.6811,2.6781,2.6781,2.678,2.6815,2.6816,2.6818,2.6819,2.6782,2.6779,2.6777,0,0,0,0,0,0,0,0,0,0,0,0,0,2.6861,2.6893,2.6812,2.6825,2.6826,2.6781,2.6781,2.678,2.6814,2.6816,2.6818,2.682,2.6783,2.678,2.6776,2.6716,0,0,2.6766,2.6764,0,0,0,0,0,0,0,0,2.6863,2.6858,2.6824,2.6824,2.6825,2.6804,2.6796,2.6758,2.6814,2.6819,2.6819,2.6821,2.6787,2.6783,2.6773,2.6714,2.6712,2.6766,2.6764,2.6762,2.6761,0,0,0,0,0,0,0,2.6866,2.686,2.68,2.6823,2.6824,2.6831,2.6828,2.6789,2.6792,2.6818,2.6821,2.6817,2.6787,2.6776,2.6772,2.6712,2.6766,2.6763,2.6761,2.6759,2.6599,2.6597,0,0,0,0,0,0,2.6867,2.6861,2.6801,2.6799,2.685,2.6827,2.6824,2.6809,2.6792,2.6792,2.6815,2.6819,2.6781,2.6776,2.6771,2.6697,2.6762,2.6759,2.6757,2.6601,2.6599,2.6596,0,0,0,0,0,0,2.6869,2.6862,2.6802,2.6831,2.6824,2.6824,2.6806,2.6807,2.6796,2.679,2.679,2.6803,2.6782,2.6776,2.6729,2.6697,2.6757,2.6754,2.6604,2.6601,2.6598,2.655,0,0,0,0,0,0,2.6871,2.6862,2.684,2.683,2.6822,2.6762,2.6804,2.6805,2.679,2.6794,2.6779,2.6778,2.6783,2.6734,2.6726,2.6693,2.6752,2.6607,2.6603,2.6599,2.6555,2.6546,2.6538,0,0,0,0,0,2.6874,2.6827,2.6839,2.6831,2.6795,2.676,2.6755,2.6764,2.6788,2.6765,2.6761,2.6779,2.6702,2.6729,2.672,2.6686,2.6609,2.6604,2.6599,2.6558,2.6548,2.6538,0,0,0,0,0,0,2.6831,2.6826,2.6839,2.6788,2.6774,2.6766,2.6737,2.6752,2.673,2.6735,2.6745,2.6741,2.6691,2.6684,2.6714,2.6625,2.6659,2.6652,2.6631,2.6621,2.6613,2.6614,2.6749,0,0,0,0,0,2.6817,2.679,2.6786,2.6742,2.6734,2.6737,2.6722,2.673,2.6716,2.6709,2.6702,2.6686,2.6658,2.664,2.6614,2.6555,2.655,2.6527,2.6518,2.6512,2.6504,2.6471,2.6459,2.658,2.658,2.658,0,0,2.6784,2.6778,2.6761,2.6733,2.6723,2.6694,2.6732,2.6699,2.6677,2.6704,2.6659,2.6654,2.6636,2.6583,2.6559,2.6575,2.6471,2.6505,2.65,2.6496,2.6464,2.6453,2.6443,2.6576,2.6577,2.6578,0,0,2.6711,2.6704,2.6666,2.6656,2.6642,2.6644,2.6634,2.6624,2.6622,2.6578,2.6597,2.657,2.6522,2.6508,2.6495,2.6416,2.6431,2.6408,2.6363,2.633,2.6321,2.6312,2.6282,2.6271,2.6401,2.6401,2.6401,0,2.6672,2.663,2.6643,2.661,2.6596,2.6621,2.658,2.657,2.6547,2.6536,2.6556,2.6496,2.6486,2.6428,2.6409,2.6399,2.6386,2.6408,2.6321,2.6313,2.6305,2.6276,2.6265,2.6398,2.6399,2.6399,2.6399,0,2.6582,2.6553,2.6523,2.6502,2.6485,2.6448,2.6454,2.6435,2.6444,2.6444,2.6398,2.6387,2.6359,2.6346,2.6355,2.6289,2.63,2.632,2.6354,2.6291,2.6264,2.6253,2.6394,2.6395,2.6396,2.6397,0,0,2.6479,2.6467,2.6455,2.6445,2.6432,2.6408,2.6372,2.6346,2.6329,2.6312,2.628,2.624,2.6258,2.6243,2.625,2.6222,2.6157,2.6246,2.6245,2.6227,2.6082,2.6066,2.6053,2.6168,2.6166,2.6165,2.6083,0,2.6403,2.6342,2.6353,2.6292,2.6264,2.6288,2.6255,2.6242,2.6241,2.6215,2.6213,2.6184,2.6212,2.6203,2.6176,2.6171,2.6128,2.6177,2.6136,2.6134,2.6137,2.6039,2.6021,2.5945,2.6073,2.6071,2.607,0,2.6307,2.6288,2.6225,2.6215,2.6204,2.6175,2.6152,2.6128,2.6113,2.6114,2.6097,2.611,2.6071,2.6107,2.6053,2.6086,2.607,2.6065,2.6062,2.6056,2.6096,2.6028,2.5921,2.5909,2.6054,2.6055,2.6056,0,2.6235,2.6194,2.6151,2.6142,2.613,2.6109,2.6103,2.609,2.6074,2.6053,2.6042,2.6016,2.6002,2.5981,2.5985,2.6011,2.5928,2.5965,2.5926,2.5925,2.5905,2.5906,2.5791,2.5898,2.5899,2.5899,2.5899,0,2.6148,2.6108,2.6119,2.6091,2.6047,2.6059,2.6013,2.601,2.5998,2.597,2.5989,2.5961,2.5969,2.5941,2.5944,2.5897,2.5891,2.5889,2.589,2.5886,2.5886,2.5873,2.5878,2.5896,2.5896,2.5897,2.5898,0,2.6059,2.6065,2.6019,2.6012,2.601,2.5976,2.5969,2.5943,2.5944,2.5907,2.5899,2.5899,2.5867,2.587,2.5833,2.5835,2.5777,2.5785,2.5782,2.5783,2.5742,2.5745,2.5613,2.5596,2.5717,2.5716,2.5715,0,2.6002,2.5972,2.5962,2.5945,2.5938,2.591,2.5894,2.5905,2.5886,2.5867,2.5842,2.5813,2.5789,2.5736,2.5732,2.5704,2.571,2.5666,2.5705,2.5702,2.5706,2.5707,2.5703,2.5657,2.5656,2.5655,2.5654,0,2.59,2.5904,2.5881,2.5859,2.5839,2.5821,2.5806,2.579,2.5799,2.5777,2.5746,2.5728,2.5691,2.566,2.5634,2.5625,2.5639,2.5642,2.563,2.5625,2.5624,2.5622,2.5758,2.5644,2.5645,2.5646,2.5646,2.5647,2.5824,2.5797,2.5786,2.5759,2.5749,2.5734,2.5708,2.5707,2.5681,2.5653,2.5661,2.5625,2.5609,2.5575,2.5564,2.5534,2.555,2.5534,2.553,2.5525,2.552,2.5631,2.553,2.553,2.553,2.553,2.5531,0,2.572,2.5715,2.569,2.5668,2.5646,2.5665,2.5648,2.5628,2.5597,2.5582,2.5559,2.5522,2.5492,2.5486,2.5457,2.5434,2.544,2.5426,2.5426,2.5423,2.5508,2.552,2.5421,2.5421,2.5421,2.5421,2.5421,2.5421,2.5664,2.562,2.5623,2.5574,2.5568,2.5534,2.5522,2.5507,2.5496,2.5454,2.543,2.5427,2.5415,2.5386,2.5358,2.5357,2.5344,2.5327,2.5328,2.5407,2.5418,2.5428,2.5439,2.5325,2.5325,2.5245,2.5245,2.5244]}]]